UHMMUHPP

Guest
Details From UHMM - Magadan Sokol
To UHPP - YELIZOVO
Flight Number -
Tags decoded
Created
Modified
Stats Distance 478 nm / 886 km
Max Altitude 0 ft / 0 m
Waypoints 2
Social Downloads 1
Likes 0
Share VATSIM

Download

Looking for another format? Having issues loading an existing format? Contact us
Advertisement - Login to hide

Notes

Requested: UHMM UHPP

Route

UHMM UHPP

ID Type Via Altitude Latitude Longitude Leg Dist Tot Dist Heading (true) Name
O UHMM APT - 0 ft / 0 m 59.91099˚ 150.72044˚ - 0 nm - Magadan Sokol
O UHPP APT - 0 ft / 0 m 53.16789˚ 158.45367˚ 478 nm 478 nm 144° / 151° YELIZOVO

Altitude Profile

Advertisement - Login to hide

Weather


0- 5 10 15 20 25 30 35+ Temperature / ° C

Clouds and Precipitation
Forecast for 2018-05-25 12:00 UTC. Updated 26 minutes ago

Ground ~20,000 ft ~40,000 ft Winds

UHMM

Details ICAO UHMM (GDX)
Name Magadan Sokol
Region Russia
Timezone Asia/Magadan (UTC+11.0)
Stats Elevation 574 ft / 175 m (AMSL)
Location 59.910989° 150.720439°
Runways 1
Magnetic Variation 10.995° W

METAR

UHMM 251100Z 00000MPS 9999 NSC 06/00 Q1010 RMK QFE742

Decode

TAF

TAF UHMM 250748Z 2509/2615 22003G08MPS 9999 NSC BECMG 2512/2514 SCT030CB BKN070 TEMPO 2518/2605 3100 -SHRA BR VV011

Decode

Departure Runways

ID Width Length Bearing (true) Bearing (mag) Surface Threshold Offset Overrun Length
10 194 ft / 59 m 11,299 ft / 3,444 m 93.20° 104.20° Concrete 0 ft / 0 m 1,975 ft / 602 m
28 194 ft / 59 m 11,299 ft / 3,444 m 273.26° 284.26° Concrete 0 ft / 0 m 220 ft / 67 m

UHPP

Details ICAO UHPP (PKC)
Name YELIZOVO
Region Russia
Timezone Asia/Kamchatka (UTC+12.0)
Stats Elevation 131 ft / 40 m (AMSL)
Location 53.167886° 158.453668°
Runways 2
Magnetic Variation 6.696° W

METAR

UHPP 251100Z 11002MPS 9999 OVC014 04/02 Q1017 R16R/CLRD70 NOSIG RMK QFE760/1013

Decode

TAF

TAF UHPP 250739Z 2509/2615 17003G12MPS 9999 BKN007 OVC015CB TEMPO 2510/2522 2000 DZ BR VV004 FM260000 17003G12MPS 9999 BKN008 OVC020CB TEMPO 2604/2615 3100 -SHRA BR OVC015CB

Decode

Destination Runways

ID Width Length Bearing (true) Bearing (mag) Surface Threshold Offset Overrun Length
16L 197 ft / 60 m 11,148 ft / 3,398 m 157.27° 163.97° Concrete 0 ft / 0 m 0 ft / 0 m
16R 197 ft / 60 m 8,228 ft / 2,508 m 157.39° 164.09° Concrete 0 ft / 0 m 0 ft / 0 m
34L 197 ft / 60 m 8,228 ft / 2,508 m 337.40° 344.10° Concrete 0 ft / 0 m 0 ft / 0 m
34R 197 ft / 60 m 11,148 ft / 3,398 m 337.29° 343.99° Concrete 0 ft / 0 m 0 ft / 0 m

Approach Navaids

Runway Type Ident Frequency Range Bearing (true) Bearing (mag) Slope Elevation
34R Localiser IPR 110.30 MHz 18 nm / 33 km 335.55° 342.24° - 131 ft / 40 m (AMSL)
34R Glidescope IPR 110.30 MHz 10 nm / 19 km 337.28° 343.97° 2.70° 131 ft / 40 m (AMSL)

Popular Alternatives